Wind_Speed
41 43 44 46 47 47 48 47 46 45 44 43 43 42 43 43 42 41 40 38 37 35 33 31 30 29 28 27 26 26 25 24 24 23 23 22 22 23
38 41 43 45 47 48 49 50 49 47 46 45 46 44 43 42 42 42 41 40 38 36 34 33 31 30 30 29 28 27 26 26 25 24 24 24 25 25
33 37 40 43 46 48 49 50 50 49 48 46 47 46 46 45 44 43 42 41 41 38 36 35 33 32 31 31 29 28 28 27 26 25 25 25 26 25
30 33 35 39 42 45 47 49 50 49 48 48 48 47 46 46 46 44 43 42 41 39 38 37 36 34 33 32 31 30 29 29 28 27 27 26 26 25
28 30 32 35 38 41 44 46 49 50 49 48 49 48 48 47 47 45 43 42 42 41 40 39 38 37 35 35 34 33 32 31 29 28 27 26 25 25
26 29 31 32 35 37 40 43 45 47 49 49 48 48 48 48 47 46 44 42 42 43 42 41 39 39 37 36 36 35 34 32 30 28 26 25 24 24
24 26 28 30 32 34 37 40 42 45 46 47 48 48 48 48 47 47 46 44 44 43 43 43 42 41 40 39 37 36 34 32 29 27 25 25 24 24
23 25 26 28 29 30 33 36 39 42 43 44 45 46 46 46 47 47 46 46 44 43 42 42 43 43 42 41 39 37 34 31 29 27 26 25 24 23
20 22 24 24 26 27 29 31 34 37 41 42 43 43 44 44 46 46 46 45 44 44 43 43 43 43 42 41 40 37 35 32 30 28 27 25 24 23
16 17 19 21 23 24 25 26 29 32 35 38 39 40 42 43 43 43 44 45 45 44 44 44 44 43 41 40 38 36 34 31 29 27 27 26 24 23
11 12 14 16 18 19 19 21 23 26 29 32 34 35 37 38 40 42 42 43 43 42 42 41 41 41 40 39 37 35 32 29 28 27 26 25 23 22
8 7 9 11 13 14 16 17 20 22 24 26 29 31 32 34 36 37 39 40 40 41 40 40 39 39 38 37 36 34 32 29 28 26 25 23 22 22
7 5 4 6 9 11 14 15 17 19 20 23 25 27 29 30 32 34 35 36 36 38 38 38 38 38 37 36 35 33 30 28 26 24 24 24 23 22
9 5 3 2 5 8 11 13 15 17 19 20 23 24 25 27 29 30 31 32 32 33 34 34 35 35 35 34 32 30 29 27 25 24 24 24 23 23
10 7 4 2 2 5 8 10 12 14 16 18 20 21 23 24 26 28 29 30 30 29 29 30 31 31 30 29 28 28 27 26 25 25 25 24 23 22
12 8 5 4 2 3 6 8 10 11 14 16 17 19 20 22 24 25 26 27 26 26 27 27 27 27 27 26 27 26 26 25 24 25 24 23 22 22
12 9 6 5 3 3 4 7 9 10 11 13 16 17 19 20 21 22 24 25 25 24 24 25 25 26 25 25 25 24 24 24 24 23 22 22 21 21
12 10 8 5 4 3 3 5 7 9 11 12 14 15 17 18 19 20 22 22 23 24 24 25 24 24 24 24 24 24 24 24 23 22 21 21 21 20
12 10 8 6 4 3 3 3 5 8 10 11 13 15 16 17 19 20 21 21 22 23 23 24 24 23 23 23 23 23 22 22 22 22 21 21 21 20
11 10 8 6 4 4 3 3 4 6 8 10 12 14 15 16 18 19 19 20 21 22 24 24 23 22 21 21 21 22 21 21 21 21 21 21 21 20
11 9 8 6 5 4 4 4 5 6 7 9 12 13 15 16 18 18 19 20 20 21 21 22 22 22 21 21 21 20 21 21 21 20 20 20 20 20
12 10 9 7 7 6 6 6 6 7 8 9 11 13 15 16 17 18 18 19 19 20 21 21 21 21 22 21 20 20 20 20 20 20 20 20 19 19
15 13 11 10 9 9 8 8 8 9 9 9 10 12 14 16 17 18 18 19 20 21 21 21 21 21 21 21 20 20 20 20 21 20 20 20 20 19
Wind_Direction
247 246 245 244 243 242 241 241 241 240 239 239 240 240 239 236 234 235 236 238 239 240 242 244 245 246 247 250 253 255 257 259 263 267 271 277 282 286
248 246 245 244 242 241 241 241 241 240 238 239 240 240 237 234 233 234 236 237 237 239 241 243 244 246 247 249 252 253 254 258 263 267 270 275 282 285
251 248 246 245 243 242 241 240 240 241 240 238 238 238 236 235 234 235 236 236 237 238 241 242 243 246 246 248 250 251 253 257 262 266 269 274 279 283
254 250 247 245 243 242 241 240 240 240 240 239 238 237 236 236 235 236 236 236 236 237 239 240 243 244 246 246 249 251 254 258 262 265 268 273 278 281
257 252 248 246 244 242 241 240 240 240 239 239 238 237 237 237 235 234 235 236 236 237 238 240 243 244 243 245 247 251 253 256 260 264 267 271 275 278
260 254 250 247 245 242 240 239 239 239 239 239 238 237 236 236 235 234 235 236 238 238 239 241 241 242 242 245 248 249 251 255 259 261 264 267 272 277
264 257 252 248 246 243 240 238 237 238 238 238 238 237 236 237 236 236 236 236 236 238 239 239 239 242 243 246 246 247 249 251 254 257 261 265 270 275
267 260 254 249 246 244 242 238 236 235 235 236 236 237 236 237 236 236 234 235 236 236 237 238 239 239 240 242 242 244 246 248 250 255 259 264 270 274
271 262 255 248 244 242 241 238 236 234 233 234 234 236 235 235 235 235 234 232 233 234 235 236 237 237 238 239 239 241 243 248 250 254 257 263 269 271
281 265 255 247 242 238 237 236 234 232 232 232 233 234 235 235 234 233 231 230 231 233 234 235 236 236 236 238 240 241 242 245 249 252 257 261 264 266
296 273 258 247 239 234 231 230 229 228 228 228 228 230 232 232 231 229 228 227 227 230 230 231 232 232 233 236 237 238 238 242 246 250 254 258 260 261
322 289 262 245 236 231 229 229 227 227 225 223 223 224 226 228 227 227 226 225 226 226 227 228 229 230 233 235 235 236 238 240 244 247 250 252 254 256
352 327 282 245 234 228 226 225 225 225 225 222 219 220 221 222 223 223 223 225 225 224 225 228 229 230 233 235 235 236 236 237 240 244 246 249 250 251
15 7 348 286 235 226 225 224 225 224 223 223 221 221 219 219 219 221 221 221 220 220 222 226 228 229 231 231 232 233 235 236 237 240 244 248 248 247
18 16 9 353 254 233 229 227 226 225 223 222 221 221 218 217 216 216 217 220 220 220 220 222 224 226 229 230 231 233 234 234 237 240 242 244 245 243
16 15 11 1 312 255 240 233 229 225 223 221 220 220 219 218 216 213 212 213 217 218 219 219 220 223 225 226 228 232 233 234 237 238 238 240 240 239
10 12 10 359 334 285 250 239 232 226 223 222 218 217 216 215 215 214 213 212 213 215 218 217 218 220 221 224 227 230 231 233 234 233 235 234 235 235
360 359 357 349 332 300 270 246 229 224 217 218 216 214 211 210 211 213 212 212 213 214 216 218 220 221 221 224 227 229 230 231 231 231 231 230 230 229
358 356 353 348 336 320 289 261 232 220 215 215 213 211 211 210 210 211 211 211 212 213 215 216 217 220 224 225 226 226 226 226 225 225 225 226 226 226
345 349 350 344 333 317 294 265 234 222 218 216 213 212 211 209 207 207 208 209 211 213 214 213 214 216 217 219 220 220 219 220 221 222 223 224 224 225
328 326 326 322 312 302 288 258 236 227 226 221 215 214 210 209 206 206 209 211 212 212 210 210 211 212 213 214 215 216 217 217 219 221 222 222 223 226
309 307 302 298 290 281 271 255 240 233 230 226 219 213 208 205 206 209 209 207 206 206 207 209 210 211 211 211 212 214 216 217 218 218 219 222 225 230
290 289 285 279 274 269 262 253 242 236 230 224 217 212 209 210 211 210 210 209 208 210 211 212 212 212 213 213 214 215 217 217 218 218 221 225 229 234
Height
5772 5775 5778 5781 5785 5788 5792 5796 5801 5805 5809 5813 5817 5821 5825 5829 5834 5837 5842 5846 5850 5853 5856 5859 5861 5863 5865 5867 5868 5869 5870 5871 5871 5871 5871 5871 5871 5870
5762 5764 5767 5770 5773 5777 5781 5785 5789 5794 5798 5803 5807 5811 5815 5820 5825 5828 5833 5838 5841 5845 5848 5851 5854 5856 5859 5860 5862 5863 5864 5865 5866 5866 5866 5866 5865 5864
5753 5754 5756 5759 5762 5766 5770 5774 5778 5782 5787 5792 5796 5801 5805 5810 5815 5819 5824 5828 5833 5837 5840 5844 5846 5849 5851 5853 5855 5857 5858 5859 5859 5860 5860 5860 5859 5858
5744 5745 5746 5748 5751 5755 5758 5763 5767 5771 5776 5781 5785 5790 5795 5800 5805 5810 5815 5819 5824 5828 5832 5835 5838 5841 5843 5846 5848 5849 5851 5852 5853 5853 5853 5853 5852 5852
5735 5735 5737 5738 5741 5744 5747 5751 5756 5760 5765 5770 5775 5779 5785 5790 5795 5800 5805 5810 5814 5819 5823 5826 5830 5833 5835 5838 5840 5842 5843 5845 5846 5846 5847 5847 5846 5845
5726 5726 5727 5729 5731 5733 5737 5740 5744 5749 5753 5759 5764 5769 5775 5780 5785 5791 5796 5801 5805 5810 5814 5818 5821 5824 5827 5830 5832 5834 5836 5837 5838 5839 5840 5840 5840 5839
5717 5717 5718 5720 5721 5724 5726 5730 5734 5738 5743 5748 5753 5759 5764 5769 5775 5781 5786 5791 5795 5800 5804 5808 5812 5815 5818 5821 5823 5825 5827 5829 5830 5832 5833 5833 5833 5832
5708 5709 5709 5711 5712 5715 5717 5720 5724 5728 5733 5738 5743 5749 5754 5760 5765 5770 5776 5781 5786 5791 5795 5798 5802 5806 5809 5812 5814 5817 5819 5821 5822 5824 5825 5826 5826 5825
5700 5700 5700 5702 5704 5706 5709 5711 5715 5719 5724 5729 5734 5739 5744 5750 5756 5761 5766 5771 5777 5782 5785 5789 5792 5796 5800 5802 5805 5808 5810 5812 5814 5816 5818 5818 5818 5819
5693 5693 5693 5695 5697 5699 5701 5704 5707 5711 5716 5721 5726 5730 5734 5739 5745 5751 5755 5760 5765 5770 5775 5779 5783 5787 5790 5793 5796 5799 5802 5804 5807 5809 5810 5811 5811 5812
5689 5688 5688 5689 5691 5693 5696 5698 5701 5704 5708 5712 5717 5721 5726 5731 5736 5741 5746 5751 5755 5760 5765 5769 5773 5777 5780 5784 5787 5791 5793 5796 5799 5801 5803 5804 5804 5805
5688 5686 5686 5687 5688 5690 5692 5694 5696 5699 5702 5706 5710 5714 5718 5723 5728 5733 5737 5742 5746 5751 5756 5761 5764 5768 5772 5776 5779 5783 5785 5788 5791 5793 5795 5797 5798 5798
5688 5687 5686 5686 5687 5688 5690 5691 5693 5696 5698 5701 5705 5708 5712 5716 5720 5725 5729 5734 5739 5743 5748 5753 5757 5761 5765 5768 5771 5775 5778 5781 5783 5786 5788 5790 5791 5792
5690 5688 5687 5687 5687 5688 5689 5690 5691 5693 5695 5698 5700 5703 5707 5710 5714 5718 5723 5727 5731 5736 5740 5745 5749 5753 5757 5761 5764 5767 5771 5773 5776 5779 5781 5783 5784 5785
5693 5691 5689 5688 5688 5688 5688 5689 5690 5691 5692 5694 5697 5699 5702 5705 5708 5712 5717 5721 5725 5729 5733 5738 5742 5746 5750 5754 5758 5761 5764 5767 5770 5773 5775 5776 5777 5779
5696 5693 5691 5690 5689 5688 5688 5688 5688 5689 5690 5692 5693 5696 5698 5701 5704 5707 5711 5715 5719 5723 5727 5732 5736 5741 5744 5748 5752 5755 5758 5760 5763 5766 5768 5770 5772 5773
5699 5696 5693 5691 5690 5689 5688 5687 5688 5688 5689 5690 5691 5693 5695 5698 5701 5704 5707 5711 5715 5719 5723 5726 5731 5734 5738 5742 5746 5749 5752 5754 5757 5759 5762 5764 5766 5768
5700 5697 5695 5692 5691 5689 5688 5687 5687 5687 5687 5688 5690 5691 5693 5695 5698 5701 5704 5707 5711 5714 5718 5722 5726 5730 5733 5737 5740 5743 5746 5748 5751 5754 5756 5759 5761 5764
5701 5698 5696 5693 5691 5690 5688 5687 5686 5686 5687 5687 5688 5690 5691 5693 5696 5699 5701 5705 5708 5711 5715 5718 5722 5726 5729 5732 5735 5738 5741 5743 5746 5749 5751 5754 5757 5759
5701 5699 5696 5694 5692 5690 5689 5688 5687 5687 5687 5687 5688 5689 5690 5692 5694 5697 5699 5702 5705 5708 5711 5714 5718 5721 5724 5728 5730 5733 5736 5739 5742 5744 5747 5749 5752 5755
5701 5698 5696 5694 5692 5690 5689 5688 5687 5687 5687 5686 5687 5688 5689 5690 5692 5694 5697 5700 5702 5705 5708 5711 5714 5717 5720 5723 5726 5729 5731 5734 5737 5740 5743 5745 5748 5750
5699 5696 5694 5693 5691 5690 5689 5688 5687 5686 5686 5686 5686 5686 5687 5689 5691 5693 5695 5697 5699 5702 5705 5708 5711 5713 5716 5719 5722 5725 5728 5730 5733 5735 5738 5741 5743 5746
5695 5693 5692 5690 5689 5688 5687 5686 5685 5685 5685 5685 5685 5685 5686 5687 5689 5690 5692 5694 5696 5699 5702 5704 5707 5710 5713 5715 5718 5721 5723 5726 5729 5731 5734 5736 5738 5741